Weather in Ikryanoe

Russia / Astrakhan Oblast     46°05′29″N   47°43′40″E
temp.,
°C
wind,
m/s
gust,
m/s
humid.,
%
clouds,
%
prec.,
mm/h
press.,
hPa
HPBL,
m
5 december, sun
sun501:00+6se6119277 0.0 1016201
04:00+6se61294100 0.0 1015272
07:00+7se5994100 0.0 1014239
10:00+8se599196 0.0 1014374
13:00+8sse5883100 0.0 1014341
16:00+8se4689100 0.1 1014206
19:00+7sse4794100 0.0 1015122
22:00+6sse5893100 0.0 1015119
6 december, mon
mon601:00+6sw4694100 0.0 1016107
04:00+6sw3594100 0.0 101768
07:00+6wsw46935 0.0 101872
10:00+6w3690100 0.0 1020128
13:00+8w457729 0.0 1020347
16:00+8wnw357280 0.0 1021293
19:00+7wnw337880 0.0 102228
22:00+6wnw338388 0.0 102319
7 december, tue
tue701:00+5nw228612 0.0 102412
04:00+4ne11885 0.0 102410
07:00+4ene22885 0.0 102510
10:00+5e33855 0.0 102671
13:00+9ese45705 0.0 1025284
16:00+9ese577026 0.0 1025259
19:00+6ese610856 0.0 1024188
22:00+6ese714855 0.0 1024242
8 december, wed
wed801:00+6ese8168024 0.0 1021289
04:00+7ese917705 0.0 1020330
07:00+7ese10186622 0.0 1018374
10:00+8ese1120585 0.0 1018463
13:00+10ese1119525 0.0 1016524
16:00+9ese11195431 0.0 1015507
19:00+8ese112054100 0.0 1014514
22:00+8ese11195383 0.0 1013518
9 december, thu
thu901:00+6ese8156524 0.0 1013399
04:00+6ese71369100 0.0 1013373
07:00+6e61073100 0.0 1013251
10:00+6e5671100 0.0 1013172
13:00+7ne346598 0.0 1013298
16:00+7n4566100 0.0 1014361
19:00+6nnw5872100 0.0 1015227
22:00+4nw5992100 1.4 1016278